TimeEST,TemperatureF,Dew PointF,Humidity,Sea Level PressureIn,VisibilityMPH,Wind Direction,Wind SpeedMPH,Gust SpeedMPH,PrecipitationIn,Events,Conditions,WindDirDegrees,DateUTC
12:53 AM,21.9,14.0,72,30.25,10.0,SE,15.0,-,N/A,,Clear,140,2012-01-16 05:53:00
1:53 AM,21.9,15.1,75,30.25,10.0,SE,11.5,-,N/A,,Clear,140,2012-01-16 06:53:00
2:53 AM,23.0,16.0,74,30.22,10.0,SSE,13.8,-,N/A,,Clear,150,2012-01-16 07:53:00
3:53 AM,24.1,18.0,77,30.20,10.0,SSE,13.8,-,N/A,,Clear,150,2012-01-16 08:53:00
4:53 AM,25.0,18.0,75,30.16,10.0,SSE,16.1,-,N/A,,Clear,160,2012-01-16 09:53:00
5:53 AM,25.0,19.0,78,30.13,10.0,SSE,16.1,-,N/A,,Clear,160,2012-01-16 10:53:00
6:53 AM,26.1,19.0,75,30.09,10.0,SSE,11.5,-,N/A,,Clear,160,2012-01-16 11:53:00
7:53 AM,27.0,19.9,75,30.08,10.0,South,11.5,-,N/A,,Clear,170,2012-01-16 12:53:00
8:53 AM,33.1,24.1,70,30.06,10.0,South,12.7,-,N/A,,Clear,190,2012-01-16 13:53:00
9:53 AM,36.0,27.0,70,30.04,10.0,South,17.3,-,N/A,,Clear,190,2012-01-16 14:53:00
10:53 AM,39.0,28.9,67,30.03,10.0,SSW,18.4,-,N/A,,Mostly Cloudy,200,2012-01-16 15:53:00
11:53 AM,39.9,30.9,70,29.99,10.0,SSW,17.3,25.3,N/A,,Overcast,200,2012-01-16 16:53:00
12:53 PM,39.9,30.9,70,29.95,10.0,SSW,17.3,-,N/A,,Overcast,200,2012-01-16 17:53:00
1:53 PM,41.0,32.0,70,29.91,10.0,SSW,20.7,-,N/A,,Overcast,200,2012-01-16 18:53:00
2:53 PM,42.1,34.0,73,29.89,10.0,SSW,20.7,32.2,N/A,,Overcast,200,2012-01-16 19:53:00
3:49 PM,42.8,37.4,81,29.87,10.0,SSW,23.0,29.9,N/A,,Overcast,200,2012-01-16 20:49:00
3:53 PM,43.0,37.9,82,29.88,10.0,SSW,21.9,-,N/A,,Overcast,200,2012-01-16 20:53:00
4:26 PM,42.8,39.2,87,29.87,10.0,SSW,19.6,-,N/A,,Overcast,200,2012-01-16 21:26:00
4:53 PM,43.0,39.0,86,29.88,10.0,SSW,20.7,27.6,N/A,,Overcast,200,2012-01-16 21:53:00
5:38 PM,42.8,39.2,87,29.87,10.0,South,23.0,27.6,N/A,,Overcast,190,2012-01-16 22:38:00
5:50 PM,42.8,39.2,87,29.87,10.0,SSW,21.9,-,N/A,,Overcast,200,2012-01-16 22:50:00
5:53 PM,43.0,39.9,89,29.88,10.0,SSW,21.9,-,N/A,,Overcast,200,2012-01-16 22:53:00
6:53 PM,43.0,39.9,89,29.88,10.0,SSW,21.9,-,N/A,,Overcast,200,2012-01-16 23:53:00
7:36 PM,44.6,39.2,81,29.86,10.0,SSW,20.7,-,N/A,,Overcast,200,2012-01-17 00:36:00
7:53 PM,44.1,41.0,89,29.86,10.0,SSW,19.6,-,N/A,,Overcast,200,2012-01-17 00:53:00
8:05 PM,44.6,41.0,87,29.84,10.0,South,18.4,-,N/A,,Overcast,190,2012-01-17 01:05:00
8:22 PM,44.6,41.0,87,29.85,10.0,SSW,17.3,28.8,N/A,,Overcast,200,2012-01-17 01:22:00
8:43 PM,44.6,41.0,87,29.84,10.0,SSW,21.9,-,N/A,,Overcast,200,2012-01-17 01:43:00
9:48 PM,44.6,42.8,93,29.84,10.0,South,17.3,25.3,N/A,,Overcast,190,2012-01-17 02:48:00
9:53 PM,45.0,42.1,90,29.84,10.0,SSW,16.1,-,N/A,,Overcast,200,2012-01-17 02:53:00
10:53 PM,46.0,43.0,89,29.83,8.0,North,-9999.0,-,N/A,,Overcast,0,2012-01-17 03:53:00
11:08 PM,46.4,42.8,87,29.82,8.0,North,-9999.0,-,N/A,,Overcast,0,2012-01-17 04:08:00
11:53 PM,46.9,45.0,93,29.81,7.0,SSW,18.4,-,N/A,,Overcast,200,2012-01-17 04:53:00